Regional Weather Roundup
Issued by NWS

Home | Current Version | Previous Version | Graphics & Text | Print | Product List | Glossary On
Versions: 1 2 3 4 5 6 7 8 9 10 11 12 13 14 15 16 17 18 19 20 21 22 23 24 25 26 27
285
ASUS45 KCYS 211010
RWRWY

WYOMING REGIONAL WEATHER ROUNDUP
NATIONAL WEATHER SERVICE CHEYENNE WY
400 AM MDT THU MAY 21 2015

NOTE:  "FAIR" INDICATES FEW OR NO CLOUDS BELOW 12,000 FEET
WITH NO SIGNIFICANT WEATHER AND/OR OBSTRUCTIONS TO VISIBILITY.

WYZ001-211100-
YELLOWSTONE NATIONAL PARK

CITY           SKY/WX    TMP DP  RH WIND       PRES   REMARKS
LK YELLOWSTONE   N/A     36  32  85 CALM      30.18R
W YELLOWSTONE  NOT AVBL

$$
WYZ002>013-054>058-071-098>099-211100-
NORTHERN WYOMING

CITY           SKY/WX    TMP DP  RH WIND       PRES   REMARKS
JACKSON        CLOUDY    43  41  93 CALM      30.13S
CODY           CLOUDY    37  36  93 S3        30.13S
GREYBULL       FAIR      42  36  79 SE3       30.14F
WORLAND        FAIR      40  34  79 SE12      30.14S WCI  33
SHERIDAN       FAIR      38  32  79 SE7       30.16S WCI  33
BUFFALO        FAIR      37  34  89 S16       30.18S WCI  28
GILLETTE       FAIR      32  29  88 S8        30.22F WCI  25
HULETT         FAIR      34  32  93 S7        30.25S WCI  28
NEWCASTLE      FAIR      32  30  93 CALM      30.28R

$$
WYZ014>020-022>026-101>103-211100-
CENTRAL WYOMING

CITY           SKY/WX    TMP DP  RH WIND       PRES   REMARKS
BIG PINEY      CLOUDY    39  35  86 S3        30.18S
PINEDALE       CLOUDY    39  37  93 CALM      30.19S
DUBOIS         CLOUDY    34  32  93 S6        30.18S WCI  29
LANDER         FAIR      37  34  89 NW3       30.16S
RIVERTON       FAIR      35  33  92 NW5       30.17F WCI  31
CASPER         CLOUDY    38  34  85 E6        30.20S WCI  33
DOUGLAS        CLOUDY    37  34  89 SE14      30.22F WCI  28

$$
WYZ021-027>030-104>119-211100-
SOUTHERN WYOMING

CITY           SKY/WX    TMP DP  RH WIND       PRES   REMARKS
EVANSTON       FAIR      39  37  92 E10       30.13S WCI  32
KEMMERER       FAIR      37  36  93 S3        30.15S
FORT BRIDGER   MOSUNNY   39  39 100 SE5       30.18R FOG
ROCK SPRINGS   LGT RAIN  38  36  92 NE13      30.15F WCI  30
DIXON          FAIR      39  36  89 NE5       30.16S
RAWLINS        CLOUDY    38  35  89 NE13      30.17S WCI  30
SARATOGA       FAIR      34  34 100 W5        30.17R WCI  30
LARAMIE        MOCLDY    33  32  96 SE21      30.17S WCI  21
CHEYENNE       CLOUDY    35  34  96 S10G21    30.23S FOG     WCI  27
TORRINGTON     CLOUDY    40  35  83 SE7       30.25S
PINE BLUFFS    CLOUDY    37  34  87 S7        30.26F WCI  32

$$



USA.gov is the U.S. government's official web portal to all federal, state and local government web resources and services.